Location: Vesunti
(61.5000°N, 22.8333°E)
Time: 09:17:53
(UTC+00:00)

FENGYUN 3A - Pass Details

Date: 17 February 2020
Orbit: 824 x 836 km, 98.4° (Epoch: 03 April)

Event Time Altitude Azimuth Distance (km) Brightness Sun altitude
Rises 04:44:37 0° 18° (NNE) 3,399 7.0 -10.5°
Reaches altitude 10° 04:47:00 10° 16° (NNE) 2,462 6.2 -10.2°
Maximum altitude 04:52:24 66° 296° (WNW) 916 3.7 -9.5°
Drops below altitude 10° 04:57:47 10° 215° (SW) 2,451 5.9 -8.9°
Sets 05:00:09 0° 213° (SSW) 3,382 6.6 -8.6°
